TimeCDT,TemperatureF,Dew PointF,Humidity,Sea Level PressureIn,VisibilityMPH,Wind Direction,Wind SpeedMPH,Gust SpeedMPH,PrecipitationIn,Events,Conditions,WindDirDegrees,DateUTC
12:53 AM,71.1,70.0,96,29.98,7.0,SSE,3.5,-,N/A,,Clear,150,2013-08-05 05:53:00
1:01 AM,71.6,69.8,94,30.03,7.0,Calm,Calm,-,N/A,,Partly Cloudy,0,2013-08-05 06:01:00
1:53 AM,70.0,69.1,97,29.95,5.0,SSE,4.6,-,N/A,,Scattered Clouds,150,2013-08-05 06:53:00
2:04 AM,71.6,69.8,94,30.01,4.0,Calm,Calm,-,N/A,,Mostly Cloudy,0,2013-08-05 07:04:00
2:15 AM,71.6,69.8,94,30.01,4.0,SSE,5.8,-,N/A,,Overcast,150,2013-08-05 07:15:00
2:53 AM,71.1,71.1,100,29.94,4.0,South,6.9,-,N/A,,Overcast,170,2013-08-05 07:53:00
3:25 AM,71.6,71.6,100,29.99,5.0,South,5.8,-,N/A,,Overcast,180,2013-08-05 08:25:00
3:53 AM,72.0,70.0,93,29.91,5.0,SSW,4.6,-,N/A,,Overcast,210,2013-08-05 08:53:00
4:53 AM,71.1,70.0,96,29.90,4.0,South,4.6,-,N/A,,Overcast,180,2013-08-05 09:53:00
5:53 AM,72.0,70.0,93,29.90,5.0,South,5.8,-,N/A,,Overcast,190,2013-08-05 10:53:00
6:53 AM,72.0,71.1,97,29.90,2.5,South,4.6,-,N/A,,Overcast,190,2013-08-05 11:53:00
7:04 AM,71.6,71.6,100,29.98,1.2,Calm,Calm,-,N/A,,Overcast,0,2013-08-05 12:04:00
7:34 AM,71.6,71.6,100,29.97,0.8,South,5.8,-,N/A,,Overcast,190,2013-08-05 12:34:00
7:53 AM,72.0,72.0,100,29.89,0.8,South,3.5,-,N/A,,Overcast,180,2013-08-05 12:53:00
8:25 AM,71.6,71.6,100,29.97,1.0,Calm,Calm,-,N/A,,Overcast,0,2013-08-05 13:25:00
8:53 AM,73.0,72.0,96,29.92,1.0,Calm,Calm,-,N/A,,Overcast,0,2013-08-05 13:53:00
9:13 AM,73.4,71.6,94,29.97,1.8,Calm,Calm,-,N/A,,Overcast,0,2013-08-05 14:13:00
9:41 AM,73.4,71.6,94,29.97,2.0,Calm,Calm,-,N/A,,Overcast,0,2013-08-05 14:41:00
9:53 AM,73.0,72.0,96,29.91,2.5,Calm,Calm,-,0.01,,Overcast,0,2013-08-05 14:53:00
10:36 AM,73.4,73.4,100,29.97,5.0,Calm,Calm,-,N/A,,Overcast,0,2013-08-05 15:36:00
10:53 AM,75.0,73.0,94,29.90,9.0,South,3.5,-,N/A,,Overcast,180,2013-08-05 15:53:00
11:11 AM,75.2,73.4,94,29.96,10.0,Calm,Calm,-,N/A,,Overcast,0,2013-08-05 16:11:00
11:28 AM,77.0,73.4,89,29.97,10.0,Calm,Calm,-,N/A,,Overcast,0,2013-08-05 16:28:00
11:53 AM,80.1,72.0,76,29.90,10.0,Calm,Calm,-,N/A,,Overcast,0,2013-08-05 16:53:00
12:35 PM,80.6,71.6,74,29.97,10.0,Variable,6.9,-,N/A,,Scattered Clouds,0,2013-08-05 17:35:00
12:53 PM,81.0,73.0,77,29.89,10.0,Variable,3.5,-,N/A,,Partly Cloudy,0,2013-08-05 17:53:00
1:53 PM,82.9,73.9,74,29.87,10.0,Variable,5.8,-,N/A,,Clear,0,2013-08-05 18:53:00
2:53 PM,86.0,73.9,67,29.85,10.0,SE,10.4,18.4,N/A,,Clear,130,2013-08-05 19:53:00
3:53 PM,82.9,73.0,72,29.85,10.0,East,11.5,-,N/A,,Clear,100,2013-08-05 20:53:00
4:53 PM,79.0,73.0,82,29.86,10.0,East,10.4,-,0.00,Rain,Light Rain,80,2013-08-05 21:53:00
5:53 PM,75.9,75.0,97,29.86,6.0,SSE,5.8,-,0.03,Rain,Light Rain,150,2013-08-05 22:53:00
6:53 PM,75.9,73.9,94,29.84,8.0,ENE,4.6,-,0.01,Rain,Light Rain,70,2013-08-05 23:53:00
7:53 PM,75.9,73.9,94,29.83,8.0,East,6.9,-,0.01,,Partly Cloudy,100,2013-08-06 00:53:00
8:53 PM,73.9,73.0,97,29.81,6.0,Calm,Calm,-,N/A,,Clear,0,2013-08-06 01:53:00
9:06 PM,75.2,73.4,94,29.89,7.0,NE,4.6,-,N/A,,Mostly Cloudy,40,2013-08-06 02:06:00
9:14 PM,75.2,73.4,94,29.92,7.0,NE,6.9,-,N/A,,Mostly Cloudy,50,2013-08-06 02:14:00
9:49 PM,75.2,73.4,94,29.94,8.0,NE,3.5,-,N/A,,Overcast,50,2013-08-06 02:49:00
9:53 PM,75.0,73.9,96,29.87,7.0,ENE,3.5,-,N/A,,Overcast,70,2013-08-06 02:53:00
10:19 PM,73.4,73.4,100,29.92,7.0,East,3.5,-,N/A,,Partly Cloudy,100,2013-08-06 03:19:00
10:53 PM,73.0,72.0,96,29.88,5.0,Calm,Calm,-,N/A,,Mostly Cloudy,0,2013-08-06 03:53:00
11:37 PM,73.4,71.6,94,29.92,4.0,SSW,4.6,-,N/A,,Scattered Clouds,210,2013-08-06 04:37:00
11:53 PM,72.0,72.0,100,29.86,4.0,Calm,Calm,-,N/A,,Partly Cloudy,0,2013-08-06 04:53:00